logo
App data

Darksiders

Store | Hub | SteamDB | Site
Developer: Vigil Games Publisher: THQ Nordic
Genre: Action, Adventure
Languages: English, French, German, Italian, Spanish, Czech, Japanese, Polish, Russian
Tags: Action (470), Adventure (361), Hack and Slash (324), Third Person (262), Singleplayer (200), Post-apocalyptic (187), Fantasy (166), Controller (127), Action RPG (99), Puzzle (88), Action-Adventure (87), Metroidvania (77), RPG (70), Open World (69), 3D Platformer (66), Spectacle fighter (65), Gore (62), Beat 'em up (58), Character Action Game (50), Platformer (33)
Category: Single-player, Steam Achievements, Partial Controller Support, Steam Cloud
Release date: Sep 23, 2010
N/A
Score rank: 73% Userscore: 89% Old userscore: 89% Metascore: 83%
Owners: 20,000 .. 50,000
Followers: 102
Peak concurrent players yesterday: 4
Playtime total: 03:14 (average) 04:50 (median)

Steam Spy is still in beta, so expect major bugs.

Owners data:

Access restricted.

This feature is only available to users with special access rights. Sorry.

If you want to proceed, you need to register or log in first and then back Steam Spy on Patreon. Look for Indie or Pro pledge.

Don't forget to use the same email as on Steam Spy!

Audience in 2 weeks:

Access restricted.

This feature is only available to users with special access rights. Sorry.

If you want to proceed, you need to register or log in first and then back Steam Spy on Patreon. Look for Indie or Pro pledge.

Don't forget to use the same email as on Steam Spy!

Peak daily concurrent players:

CCU data courtesy of SteamDB. Used with permission.

Hourly concurrent players:

YouTube:

The views data is based on top 50 videos uploaded last week. Actual number of views might be more than the number shown.

The displayed number of videos uploaded yesterday is limited to 50, so if there were more videos uploaded, the number will still show 50.

If the game has commonly used word as its name (like "FEAR" or "Volume") its number of Youtube views might be wrong.

Games similar to this one:

# Game Release date
Price
Score rank
(Userscore / Metascore)
Owners
Players
Playtime (Median)
1 Little Big Adventure 2 Oct 20, 2015 $1.9999% (98%)0 .. 20,0000%00:00 (00:00)
2 Militia Dec 2, 2015 $2.9999% (98%)0 .. 20,0000%00:00 (00:00)
3 Dungeon Warfare Nov 4, 2015 $3.3997% (97%)20,000 .. 50,0000%00:00 (00:00)
4 Seven Kingdoms: Ancient Adversaries Jun 8, 1998 $2.39N/A (N/A)0 .. 20,0000%00:00 (00:00)
5 Imperium Galactica Mar 1, 1997 $1.24N/A (N/A)0 .. 20,0000%00:00 (00:00)
6 Defend The Highlands Nov 6, 2015 $2.49N/A (N/A)100,000 .. 200,0001.37%01:39 (02:11)
7 Voodoo Vince: Remastered Apr 18, 2017 $14.9995% (96%/63%)0 .. 20,0000%00:00 (00:00)
8 Templar Battleforce Sep 21, 2015 $4.9992% (95%)20,000 .. 50,0000%00:00 (00:00)
9 Chicken Invaders 2 Mar 4, 2016 $1.9992% (95%)0 .. 20,0000%00:00 (00:00)
10 Hegemony Gold: Wars of Ancient Greece Mar 30, 2012 $4.9492% (95%)20,000 .. 50,0000%00:00 (00:00)
11 Outcast 1.1 Dec 18, 2014 $1.7992% (95%)20,000 .. 50,0000%00:00 (00:00)
12 Darknet Jun 8, 2017 $9.8992% (95%)0 .. 20,0000%00:00 (00:00)
13 PixelJunk Shooter Nov 11, 2013 $1.3492% (95%/73%)100,000 .. 200,0000%00:00 (00:00)
14 Kalimba Apr 22, 2015 $2.4990% (94%/81%)0 .. 20,0000%00:00 (00:00)
15 Audio Arena Jul 25, 2016 $1.04N/A (N/A)0 .. 20,0000%00:00 (00:00)
16 Flywrench Aug 24, 2015 $3.4990% (94%)0 .. 20,0000%00:00 (00:00)
17 Star Trek: Judgment Rites May 8, 2015 $9.99N/A (N/A)0 .. 20,0000%00:00 (00:00)
18 Run or Die Dec 11, 2014 $0.4990% (94%)0 .. 20,0000%00:00 (00:00)
19 Majesty Gold HD Mar 23, 2001 $2.4990% (94%)100,000 .. 200,0000%00:00 (00:00)
20 Gold Rush! Classic Jul 25, 2014 $1.49N/A (N/A)200,000 .. 500,0001.45%03:20 (04:23)
21 Neon Chrome Apr 28, 2016 $4.4990% (94%/74%)0 .. 20,0000.34%00:05 (00:01)
22 Stick it to The Man! Dec 13, 2013 $2.7990% (94%/83%)20,000 .. 50,0000%00:00 (00:00)
23 Supercharged Robot VULKAISER Jun 4, 2015 $2.4990% (94%)20,000 .. 50,0000%00:00 (00:00)
24 ESCHATOS Sep 18, 2015 $8.9990% (94%)0 .. 20,0000%00:00 (00:00)
25 Eufloria HD Oct 14, 2014 $14.9987% (93%)200,000 .. 500,0000%00:00 (00:00)
26 Tallowmere Mar 3, 2015 $2.3987% (93%)20,000 .. 50,0004.17%02:23 (01:32)
27 Major Mayhem Feb 24, 2014 $4.99N/A (N/A)20,000 .. 50,0000%00:00 (00:00)
28 Super Trench Attack! Jul 24, 2014 $0.4987% (93%)50,000 .. 100,0001.15%02:44 (01:49)
29 Bleed Jul 3, 2013 $1.9987% (93%)100,000 .. 200,0000.86%04:03 (01:21)
30 Adventure in the Tower of Flight Dec 23, 2015 $1.99N/A (N/A)0 .. 20,0000%00:00 (00:00)
31 Kick Ass Commandos Nov 17, 2016 $4.9987% (93%)0 .. 20,0000%00:00 (00:00)
32 Pharaoh Rebirth+ Mar 17, 2016 $2.9987% (93%)0 .. 20,0000%00:00 (00:00)
33 Handsome Mr. Frog Aug 8, 2016 $0.4987% (93%)0 .. 20,0000%00:00 (00:00)
34 Battle Academy 2: Eastern Front Sep 12, 2014 $9.9983% (92%/78%)0 .. 20,0000%00:00 (00:00)
35 Ys VI: The Ark of Napishtim Apr 28, 2015 $5.9983% (92%)50,000 .. 100,0000%00:00 (00:00)
36 Anarcute Jul 12, 2016 $5.9983% (92%/79%)0 .. 20,0004.76%02:48 (00:56)
37 The Juicer Sep 11, 2015 $0.4983% (92%)20,000 .. 50,0000.74%03:54 (01:18)
38 Khet 2.0 Oct 1, 2014 $2.4983% (92%)50,000 .. 100,0000%00:00 (00:00)
39 Death Ray Manta SE Sep 17, 2015 $0.7983% (92%)20,000 .. 50,0000%00:00 (00:00)
40 Super Cyborg Jul 8, 2015 $1.9983% (92%)20,000 .. 50,0001.04%04:08 (01:22)
41 Shmups Skill Test シューティング技能検定 Jun 9, 2016 $3.99N/A (N/A)0 .. 20,0000%00:00 (00:00)
42 Below Kryll Sep 7, 2015 $0.9983% (92%)0 .. 20,0000%00:00 (00:00)
43 Knightmare Tower Jun 16, 2014 $0.9983% (92%)0 .. 20,0000%00:00 (00:00)
44 Mad Bullets Jun 10, 2016 $1.9979% (91%)0 .. 20,0000%00:00 (00:00)
45 Armed with Wings: Rearmed Jun 1, 2017 $6.9979% (91%)20,000 .. 50,0000%00:00 (00:00)
46 Miracle Fly Oct 26, 2015 $2.39N/A (N/A)20,000 .. 50,0000%00:00 (00:00)
47 Explosionade Sep 23, 2015 $3.99N/A (N/A)0 .. 20,0001.67%00:46 (00:15)
48 Warrior Kings: Battles May 6, 2014 $1.4979% (91%/64%)20,000 .. 50,0000%00:00 (00:00)
49 Demons with Shotguns Apr 25, 2016 $0.99N/A (N/A)0 .. 20,0000%00:00 (00:00)
50 Blue Estate The Game Apr 8, 2015 $3.2479% (91%/59%)50,000 .. 100,0000%00:00 (00:00)
51 Dandy: Or a Brief Glimpse Into the Life of the Candy Alchemist Aug 4, 2015 $9.99N/A (N/A)0 .. 20,0000%00:00 (00:00)
52 Wars and Warriors: Joan of Arc Sep 3, 2015 $1.7479% (91%/60%)0 .. 20,0000%00:00 (00:00)
53 RIVE: Wreck, Hack, Die, Retry! Sep 13, 2016 $3.7479% (91%)200,000 .. 500,0000.28%00:05 (00:01)
54 Valley Aug 24, 2016 $3.9979% (91%)100,000 .. 200,0000%00:00 (00:00)
55 Spider: Rite of the Shrouded Moon Aug 6, 2015 $2.99N/A (N/A)20,000 .. 50,0000%00:00 (00:00)
56 Ittle Dew Jul 23, 2013 $4.9979% (91%/67%)100,000 .. 200,0000%00:00 (00:00)
57 Momodora III Jul 1, 2014 $1.9979% (91%)50,000 .. 100,0001.45%01:05 (00:21)
58 Clash of Puppets Dec 16, 2014 $2.99N/A (N/A)0 .. 20,0000%00:00 (00:00)
59 Earth Defense Force: Insect Armageddon Dec 14, 2011 $9.9979% (91%/69%)50,000 .. 100,0000%00:00 (00:00)
60 Skulls of the Shogun Jul 29, 2013 $3.9979% (91%/72%)100,000 .. 200,0000.4%00:51 (00:17)
61 Angry Video Game Nerd II: ASSimilation Mar 29, 2016 $9.9979% (91%)20,000 .. 50,0000%00:00 (00:00)
62 Wild Guns Reloaded Jul 11, 2017 $9.9976% (90%)0 .. 20,0000%00:00 (00:00)
63 Kohan: Ahriman's Gift Aug 24, 2011 $9.99N/A (N/A/79%)0 .. 20,0000%00:00 (00:00)
64 Kohan II: Kings of War Sep 21, 2004 $9.9976% (90%/81%)20,000 .. 50,0000%00:00 (00:00)
65 Weird Hero Nov 18, 2016 $0.7476% (90%)0 .. 20,0000%00:00 (00:00)
66 Near Death Aug 2, 2016 $3.7476% (90%/70%)0 .. 20,0000%00:00 (00:00)
67 Apocalypse: Party's Over May 30, 2016 $2.4976% (90%)0 .. 20,0000%00:00 (00:00)
68 Swords and Soldiers HD Dec 2, 2010 $1.9976% (90%)50,000 .. 100,0001.38%00:12 (00:06)
69 Superstatic Sep 15, 2015 $0.99N/A (N/A)0 .. 20,0000%00:00 (00:00)
70 Death's Hangover Jan 20, 2017 $0.4976% (90%)20,000 .. 50,0004.82%02:07 (00:46)
71 Ace of Seafood Apr 8, 2016 $5.9976% (90%)0 .. 20,0000%00:00 (00:00)
72 Silent Storm Gold Edition Oct 2, 2013 $2.4976% (90%/83%)200,000 .. 500,0000%00:00 (00:00)
73 Headlander Jul 25, 2016 $5.9976% (90%/74%)20,000 .. 50,0000%00:00 (00:00)
74 Planet of the Eyes Aug 24, 2015 $2.4976% (90%/66%)50,000 .. 100,0000%00:00 (00:00)
75 Fort Meow Jun 24, 2015 $1.5973% (89%)0 .. 20,0000%00:00 (00:00)
76 Codename: Panzers, Phase Two Feb 18, 2016 $3.7473% (89%/80%)0 .. 20,0000%00:00 (00:00)
77 Sneaky Sneaky Nov 12, 2014 $4.9973% (89%/63%)0 .. 20,0000%00:00 (00:00)
78 Lethe - Episode One Aug 1, 2016 $2.9973% (89%)0 .. 20,0005.26%01:41 (01:36)
79 Reverse Crawl Sep 24, 2015 $2.0373% (89%)20,000 .. 50,0000%00:00 (00:00)
80 Zombo Buster Rising Oct 2, 2016 $0.9973% (89%)0 .. 20,0001.85%02:38 (00:52)
81 Warhammer 40,000: Dawn of War – Winter Assault Jan 1, 2006 $3.2473% (89%)500,000 .. 1,000,0000.45%02:47 (01:51)
82 Amaranthine Apr 6, 2016 $0.8973% (89%)0 .. 20,0004.76%02:45 (01:30)
83 MoonBase Commander Feb 6, 2014 $1.4973% (89%/77%)20,000 .. 50,0000%00:00 (00:00)
84 Spectromancer Oct 15, 2008 $9.9973% (89%)20,000 .. 50,0000%00:00 (00:00)
85 CastleStorm Jul 29, 2013 $2.4973% (89%/73%)100,000 .. 200,0000%00:00 (00:00)
86 Viking Squad Oct 4, 2016 $7.4970% (88%)0 .. 20,0000%00:00 (00:00)
87 Super Furball Apr 21, 2015 $0.91N/A (N/A)0 .. 20,0000%00:00 (00:00)
88 Anodyne Mar 22, 2013 $3.3970% (88%/75%)100,000 .. 200,0000%00:00 (00:00)
89 Battlepillars Gold Edition Apr 28, 2014 $2.4970% (88%)20,000 .. 50,0000%00:00 (00:00)
90 Tcheco in the Castle of Lucio Jun 22, 2015 $0.4970% (88%)20,000 .. 50,0000.42%00:02 (00:00)
91 Greed Corp Dec 10, 2010 $9.9970% (88%/76%)200,000 .. 500,0000%00:00 (00:00)
92 The Fall May 30, 2014 $1.9970% (88%/76%)200,000 .. 500,0000.75%00:36 (00:24)
93 Avoid - Sensory Overload Apr 8, 2014 $0.9970% (88%)0 .. 20,0000%00:00 (00:00)
94 Lethal VR Nov 8, 2016 $3.7470% (88%/66%)0 .. 20,0000%00:00 (00:00)
95 Atom Zombie Smasher Mar 14, 2011 $7.9970% (88%/75%)200,000 .. 500,0000%00:00 (00:00)
96 Earn to Die 2 May 5, 2016 $4.9970% (88%)0 .. 20,0000%00:00 (00:00)
97 The Way May 20, 2016 $3.7470% (88%/67%)20,000 .. 50,0002.63%02:42 (02:01)
98 Civilization IV: Warlords Apr 6, 2007 $4.9967% (87%/84%)1,000,000 .. 2,000,0000%00:00 (00:00)
99 Sang-Froid - Tales of Werewolves Apr 5, 2013 Free67% (87%/79%)200,000 .. 500,0000%00:00 (00:00)
100 Neon Shadow Aug 25, 2016 $4.99N/A (N/A)0 .. 20,0000%00:00 (00:00)
101 The Tiny Tale 2 Jan 30, 2015 $1.74N/A (N/A)0 .. 20,0000%00:00 (00:00)
102 Shadow Blade: Reload Aug 10, 2015 $4.4967% (87%/70%)20,000 .. 50,0000.98%03:43 (01:14)
103 TRON 2.0 Oct 10, 2014 $3.4967% (87%/84%)50,000 .. 100,0000%00:00 (00:00)
104 Supreme Commander Feb 20, 2007 $3.2467% (87%/86%)500,000 .. 1,000,0000.2%00:11 (00:03)
105 Syrian Warfare Feb 21, 2017 $4.9467% (87%)20,000 .. 50,0008%01:41 (01:07)
106 Bullet Sorrow VR Apr 17, 2017 $19.9967% (87%)0 .. 20,0000%00:00 (00:00)
107 Spooky Cats Jun 4, 2015 $0.7467% (87%)20,000 .. 50,0000%00:00 (00:00)
108 Mr. Shifty Apr 13, 2017 $4.9467% (87%)50,000 .. 100,0001.88%02:29 (02:32)
109 Blacksea Odyssey Jun 1, 2016 $4.9967% (87%/74%)0 .. 20,0000%00:00 (00:00)
110 Super Chibi Knight Jun 24, 2015 $2.4964% (86%)20,000 .. 50,0002.27%04:09 (01:23)
111 Ghost Master Aug 23, 2003 $0.7464% (86%/81%)100,000 .. 200,0000%00:00 (00:00)
112 Rush for Berlin Gold Oct 29, 2009 $2.4964% (86%/76%)20,000 .. 50,0000%00:00 (00:00)
113 Meltdown Jun 5, 2014 $2.4464% (86%)50,000 .. 100,0000%00:00 (00:00)
114 Star Ruler Sep 20, 2010 $2.4964% (86%)100,000 .. 200,0000%00:00 (00:00)
115 Executive Assault Jul 17, 2015 $9.7464% (86%)20,000 .. 50,0000%00:00 (00:00)
116 Time Rifters Oct 21, 2014 $3.9964% (86%)0 .. 20,0000%00:00 (00:00)
117 Concealed Intent Aug 2, 2016 $2.99N/A (N/A)0 .. 20,0000%00:00 (00:00)
118 Age of Wonders Shadow Magic Oct 2010 $2.4964% (86%/82%)100,000 .. 200,0000%00:00 (00:00)
119 VelocityUltra Dec 12, 2013 $3.4964% (86%)50,000 .. 100,0000%00:00 (00:00)
120 The Haunted: Hells Reach Oct 24, 2011 $1.7964% (86%/51%)50,000 .. 100,0000%00:00 (00:00)
121 Arcane Sorcery Sep 15, 2015 $4.99N/A (N/A)0 .. 20,0000%00:00 (00:00)
122 Magnifico Dec 2, 2014 $1.2464% (86%)50,000 .. 100,0001.72%01:27 (00:29)
123 ShootMania Storm Apr 10, 2013 $6.7961% (85%/76%)50,000 .. 100,0000%00:00 (00:00)
124 NOBUNAGA'S AMBITION: Souzou (Traditional Chinese version) Aug 2014 $17.1961% (85%)20,000 .. 50,0000%00:00 (00:00)
125 Slash or Die Jun 3, 2016 $1.1961% (85%)20,000 .. 50,0000%00:00 (00:00)
126 Steel Rain Dec 3, 2015 $2.79N/A (N/A)0 .. 20,0000%00:00 (00:00)
127 ENSLAVED: Odyssey to the West Premium Edition Oct 24, 2013 $4.9961% (85%/70%)200,000 .. 500,0000.24%00:13 (00:04)
128 CRYPTARK Jun 20, 2017 $3.7461% (85%/80%)50,000 .. 100,0001.92%01:35 (00:31)
129 Ballistic Tanks Sep 20, 2016 $0.9961% (85%)0 .. 20,0000%00:00 (00:00)
130 Interloper May 21, 2015 Free61% (85%/77%)50,000 .. 100,0000%00:00 (00:00)
131 Conflict Desert Storm Sep 13, 2002 $0.9759% (84%/56%)20,000 .. 50,0000%00:00 (00:00)
132 Child Of Ault Jan 24, 2017 $9.99N/A (N/A)0 .. 20,0000%00:00 (00:00)
133 Foresight Nov 28, 2014 $2.99N/A (N/A)0 .. 20,0001.16%00:15 (00:05)
134 The Men of Yoshiwara: Kikuya Oct 14, 2015 $9.8959% (84%)0 .. 20,0000%00:00 (00:00)
135 Gurgamoth Feb 16, 2016 $4.99N/A (N/A)50,000 .. 100,0000.76%02:35 (00:51)
136 Battle Group 2 Jun 13, 2014 $0.7959% (84%)50,000 .. 100,0000.96%00:01 (00:00)
137 Eador: Genesis Oct 14, 2013 $1.1959% (84%)50,000 .. 100,0000%00:00 (00:00)
138 Rooks Keep Dec 5, 2014 $2.71N/A (N/A)20,000 .. 50,0000%00:00 (00:00)
139 Legend (1994) Nov 10, 2015 $2.49N/A (N/A)0 .. 20,0000%00:00 (00:00)
140 Yomi May 8, 2015 $7.4959% (84%)0 .. 20,0000%00:00 (00:00)
141 Act of War: Direct Action Mar 14, 2005 $1.1959% (84%/82%)20,000 .. 50,0000%00:00 (00:00)
142 Last Knight: Rogue Rider Edition Oct 3, 2014 $1.5959% (84%)20,000 .. 50,0001.35%02:01 (00:40)
143 Western 1849 Reloaded Feb 10, 2017 $0.9959% (84%)0 .. 20,0000%00:00 (00:00)
144 Fat Chicken Dec 4, 2014 $9.99N/A (N/A)0 .. 20,0000%00:00 (00:00)
145 Dustoff Heli Rescue Mar 6, 2015 $0.5159% (84%)20,000 .. 50,0000%00:00 (00:00)
146 GIBZ Apr 7, 2017 $2.7956% (83%)0 .. 20,0000%00:00 (00:00)
147 Orbital Gear Aug 7, 2014 $0.9956% (83%/59%)200,000 .. 500,0000.32%02:03 (00:41)
148 Galaxy Admirals Jan 17, 2017 $0.9956% (83%)50,000 .. 100,0000%00:00 (00:00)
149 TY the Tasmanian Tiger 4 Sep 17, 2015 $1.4956% (83%)0 .. 20,0000%00:00 (00:00)
150 Crush Your Enemies Jul 13, 2016 $0.9956% (83%/63%)20,000 .. 50,0003.13%01:30 (00:30)
151 Bulletstorm: Full Clip Edition Apr 7, 2017 $9.9956% (83%/76%)20,000 .. 50,0002.94%00:18 (00:06)
152 Rack N Ruin Sep 1, 2015 $9.99N/A (N/A)0 .. 20,0000%00:00 (00:00)
153 Disciples Sacred Lands Gold Oct 7, 2014 $0.7956% (83%)50,000 .. 100,0003.77%00:30 (00:19)
154 Sudden Strike 2 Gold Aug 30, 2002 $2.9956% (83%)20,000 .. 50,0000%00:00 (00:00)
155 NOBUNAGA'S AMBITION: Sphere of Influence Sep 1, 2015 $23.9956% (83%/70%)20,000 .. 50,0000%00:00 (00:00)
156 Delta Force 2 Oct 31, 1999 $1.2456% (83%)50,000 .. 100,0004.17%01:57 (00:39)
157 Advanced Tactics Gold Aug 15, 2014 $9.8956% (83%)0 .. 20,0000%00:00 (00:00)
158 Ace of Protectors Jun 27, 2016 $1.19N/A (N/A)0 .. 20,0001.96%01:23 (00:27)
159 Defense Zone Jul 14, 2014 $2.39N/A (N/A)0 .. 20,0000%00:00 (00:00)
160 Square Brawl Oct 22, 2015 $4.9954% (82%)0 .. 20,0000%00:00 (00:00)
161 htoL#NiQ: The Firefly Diary / htoL#NiQ-ホタルノニッキ- May 18, 2016 $4.9954% (82%)0 .. 20,0000%00:00 (00:00)
162 PixelJunk Shooter Ultimate Oct 21, 2015 $1.4954% (82%)20,000 .. 50,0000%00:00 (00:00)
163 She Wants Me Dead May 13, 2016 $7.9954% (82%)0 .. 20,0000%00:00 (00:00)
164 Fleet Command May 15, 1999 $1.9954% (82%)20,000 .. 50,0000%00:00 (00:00)
165 Blade Arcus from Shining: Battle Arena Jul 28, 2016 $11.9954% (82%)0 .. 20,0000%00:00 (00:00)
166 After The End: The Harvest Jun 2, 2017 $1.9954% (82%)20,000 .. 50,0000%00:00 (00:00)
167 Shadow Ops: Red Mercury Jul 2, 2014 $1.7454% (82%/61%)20,000 .. 50,0000%00:00 (00:00)
168 Weapon of Choice Sep 23, 2015 $4.99N/A (N/A)0 .. 20,0002.08%00:20 (00:06)
169 In Verbis Virtus Apr 3, 2015 $4.9951% (81%)50,000 .. 100,0001.43%00:06 (00:02)
170 Age of Wonders Oct 2010 $1.4951% (81%)100,000 .. 200,0000%00:00 (00:00)
171 Jim Power -The Lost Dimension Sep 30, 2015 $2.49N/A (N/A)0 .. 20,0000%00:00 (00:00)
172 Enemy Mind Jun 6, 2014 $1.9951% (81%)200,000 .. 500,0000.27%00:01 (00:00)
173 Anomaly 2 May 15, 2013 $2.9951% (81%/77%)200,000 .. 500,0000.3%00:13 (00:04)
174 Junk Jack Nov 30, 2016 $11.2451% (81%)0 .. 20,0000%00:00 (00:00)
175 Toadled Sep 22, 2016 $0.4951% (81%)50,000 .. 100,0000%00:00 (00:00)
176 Fate of the World Feb 28, 2011 $4.9951% (81%/70%)50,000 .. 100,0000%00:00 (00:00)
177 Graviteam Tactics: Operation Star Feb 11, 2014 $22.4951% (81%)20,000 .. 50,0000%00:00 (00:00)
178 Perimeter Apr 3, 2014 $0.9949% (80%/77%)20,000 .. 50,0000%00:00 (00:00)
179 Age of Gladiators Feb 25, 2016 $2.9949% (80%)20,000 .. 50,0000%00:00 (00:00)
180 Dominions 3: The Awakening Sep 10, 2013 $4.9949% (80%/82%)0 .. 20,0000%00:00 (00:00)
181 Trigger Runners Mar 3, 2016 $1.99N/A (N/A)0 .. 20,0000%00:00 (00:00)
182 Cultures - 8th Wonder of the World Mar 26, 2015 $0.9949% (80%)50,000 .. 100,0000%00:00 (00:00)
183 Conquest of Elysium 3 Oct 24, 2012 $2.4949% (80%)20,000 .. 50,0000%00:00 (00:00)
184 Hail to the King: Deathbat Oct 30, 2014 $5.9949% (80%)0 .. 20,0000%00:00 (00:00)
185 Making History: The Calm & the Storm Mar 13, 2007 $0.7449% (80%/70%)50,000 .. 100,0000%00:00 (00:00)
186 Demolition Inc. Sep 19, 2011 $5.9949% (80%)50,000 .. 100,0000%00:00 (00:00)
187 Ninjahtic Jul 6, 2015 $0.7949% (80%)0 .. 20,0000%00:00 (00:00)
188 Supreme Ruler 2020 Gold Jun 17, 2008 $1.9949% (80%/65%)50,000 .. 100,0000%00:00 (00:00)
189 Gatling Gears Aug 30, 2011 $9.9949% (80%)20,000 .. 50,0000%00:00 (00:00)
190 Legends of Callasia Jun 10, 2016 $3.7449% (80%)20,000 .. 50,0000%00:00 (00:00)
191 7,62 High Calibre Apr 30, 2014 $1.2449% (80%)50,000 .. 100,0000%00:00 (00:00)
192 Monday Night Combat Jan 24, 2011 $0.7449% (80%/82%)200,000 .. 500,0000.44%00:46 (00:15)
193 Bloodsports.TV Mar 30, 2015 $2.4949% (80%/69%)50,000 .. 100,0000%00:00 (00:00)
194 rymdkapsel Jan 30, 2014 $7.9949% (80%/77%)0 .. 20,0000%00:00 (00:00)
195 Zeno Clash 2 Apr 30, 2013 $2.9949% (80%)200,000 .. 500,0001.09%00:58 (01:14)
196 Run Rabbit Run Mar 31, 2016 $2.6749% (80%)0 .. 20,0000%00:00 (00:00)
197 ROD: Revolt Of Defense Aug 12, 2016 $0.5949% (80%)20,000 .. 50,0005.56%00:30 (00:10)
198 Interplanetary May 12, 2015 N/A49% (80%)100,000 .. 200,0000%00:00 (00:00)
199 Fantasy Wars Aug 6, 2010 $1.2449% (80%/67%)50,000 .. 100,0000%00:00 (00:00)
200 Anomaly Warzone Earth Mobile Campaign Nov 6, 2013 $0.9949% (80%)100,000 .. 200,0000%00:00 (00:00)
201 Gun Metal Jan 16, 2014 $1.0149% (80%)200,000 .. 500,0000.19%01:34 (00:31)
202 Blue Effect VR Sep 29, 2016 $7.4947% (79%)0 .. 20,0000%00:00 (00:00)
203 Tiki Man Jun 5, 2015 $0.547% (79%)20,000 .. 50,0001.48%00:46 (00:30)
204 Battle Mages: Sign of Darkness Jul 24, 2014 $0.4947% (79%)20,000 .. 50,0000%00:00 (00:00)
205 Defense Zone 3 Ultra HD Dec 14, 2016 $2.3947% (79%)0 .. 20,0000%00:00 (00:00)
206 Nuclear Dawn Sep 26, 2011 $1.7947% (79%/71%)200,000 .. 500,0000.57%02:54 (01:25)
207 Vietnam ‘65 Mar 5, 2015 $4.8947% (79%/81%)0 .. 20,0000%00:00 (00:00)
208 Ironcast Mar 26, 2015 $7.4947% (79%/75%)20,000 .. 50,0000%00:00 (00:00)
209 Battlezone Gold Edition May 11, 2017 $17.4947% (79%)0 .. 20,0000%00:00 (00:00)
210 Locoland May 28, 2015 $0.49N/A (N/A)0 .. 20,0000%00:00 (00:00)
211 Klang Sep 22, 2016 $3.7447% (79%/71%)0 .. 20,0000%00:00 (00:00)
212 TRON RUN/r Feb 16, 2016 $5.9947% (79%)0 .. 20,0006.67%00:10 (00:03)
213 TASTEE: Lethal Tactics May 10, 2016 $3.7447% (79%)0 .. 20,0001.37%01:38 (00:32)
214 Caster Mar 19, 2009 $1.9947% (79%)200,000 .. 500,0000.26%01:21 (00:27)
215 Advent Rising Aug 9, 2005 $3.9947% (79%/70%)20,000 .. 50,0001.16%00:08 (00:02)
216 Star Wolves 3: Civil War Mar 2, 2010 $1.2447% (79%)100,000 .. 200,0000%00:00 (00:00)
217 Protoshift Jan 15, 2016 $0.99N/A (N/A)0 .. 20,0000%00:00 (00:00)
218 David. Feb 16, 2015 $0.5947% (79%)50,000 .. 100,0000.69%01:26 (00:28)
219 Fortified Feb 3, 2016 $2.9947% (79%)500,000 .. 1,000,00049.66%04:19 (04:52)
220 Zombie Party Jun 10, 2016 $1.9947% (79%)100,000 .. 200,0002.17%03:10 (01:03)
221 Envoy Mar 17, 2016 $0.49N/A (N/A)50,000 .. 100,0000.42%00:44 (00:14)
222 Zombie Killtime Aug 4, 2015 $1.99N/A (N/A)0 .. 20,0000%00:00 (00:00)
223 Umihara Kawase Shun: Steam Edition Nov 24, 2015 $5.99N/A (N/A)0 .. 20,0000%00:00 (00:00)
224 Making History II: The War of the World Jun 22, 2010 $7.4945% (78%/38%)20,000 .. 50,0002.22%05:04 (01:41)
225 Aeon Command Jul 3, 2014 $0.7445% (78%)20,000 .. 50,0000%00:00 (00:00)
226 Star Realms Mar 8, 2016 Free45% (78%)100,000 .. 200,0001.67%00:10 (00:03)
227 Vector Strain Dec 9, 2015 $1.49N/A (N/A)20,000 .. 50,0000%00:00 (00:00)
228 PAC-MAN and the Ghostly Adventures Oct 29, 2013 $4.9945% (78%)0 .. 20,0000%00:00 (00:00)
229 Tank Destroyer Mar 9, 2017 $0.545% (78%)20,000 .. 50,0000%00:00 (00:00)
230 Starscape Mar 27, 2003 $1.9945% (78%)20,000 .. 50,0000%00:00 (00:00)
231 Deadly 30 Jan 8, 2014 $1.2445% (78%)100,000 .. 200,0000%00:00 (00:00)
232 Strike Suit Zero: Director's Cut Apr 8, 2014 $3.9945% (78%)20,000 .. 50,0000%00:00 (00:00)
233 Pharaonic Apr 28, 2016 $3.7445% (78%)0 .. 20,0000%00:00 (00:00)
234 Dead Rising 2: Off the Record Oct 11, 2011 $5.9945% (78%/66%)200,000 .. 500,0000.27%00:35 (00:11)
235 Mold on Pizza Sep 25, 2015 $5.9945% (78%)0 .. 20,0000%00:00 (00:00)
236 King of Dragon Pass Jul 28, 2015 $3.5945% (78%)20,000 .. 50,0000%00:00 (00:00)
237 The Legend of Dark Witch Dec 1, 2015 $2.4945% (78%)20,000 .. 50,0000%00:00 (00:00)
238 Warhammer 40,000: Armageddon Nov 26, 2014 $9.5945% (78%/68%)20,000 .. 50,00010%21:40 (14:26)
239 Mysterium: A Psychic Clue Game Jan 12, 2017 $9.9945% (78%)50,000 .. 100,0000%00:00 (00:00)
240 The Political Machine 2016 Feb 4, 2016 $4.9943% (77%)50,000 .. 100,0001.12%00:53 (00:17)
241 Heroes of Might & Magic V: Hammers of Fate Nov 14, 2006 $2.4943% (77%/66%)200,000 .. 500,0000%00:00 (00:00)
242 A.R.E.S. Extinction Agenda EX Oct 3, 2014 $1.9943% (77%)0 .. 20,0000%00:00 (00:00)
243 A Blind Legend Apr 7, 2016 $3.4943% (77%)0 .. 20,0000%00:00 (00:00)
244 Dangerous Waters Feb 7, 2006 $2.9943% (77%/82%)50,000 .. 100,0000%00:00 (00:00)
245 Sky Gamblers: Storm Raiders Jan 7, 2015 $3.3943% (77%)0 .. 20,0000%00:00 (00:00)
246 Bet On Soldier Dec 5, 2014 $1.9943% (77%)100,000 .. 200,0000%00:00 (00:00)
247 McDROID Sep 5, 2014 $9.9943% (77%)0 .. 20,0000%00:00 (00:00)
248 Curse of the Crescent Isle DX Aug 21, 2015 $1.5443% (77%)0 .. 20,0000%00:00 (00:00)
249 Starchaser: Priestess of the Night Sky Jul 24, 2015 $3.29N/A (N/A)0 .. 20,0000%00:00 (00:00)
250 Olympia Rising Jul 23, 2015 $4.99N/A (N/A)0 .. 20,0000%00:00 (00:00)
251 Fist Puncher Jun 21, 2013 $0.9941% (76%/73%)20,000 .. 50,0000%00:00 (00:00)
252 Victory At Sea Aug 8, 2014 $4.9941% (76%)20,000 .. 50,0000%00:00 (00:00)
253 Chaser Aug 22, 2003 $1.2441% (76%/66%)100,000 .. 200,0000%00:00 (00:00)
254 Riddled Corpses Jun 2, 2015 $1.9941% (76%)20,000 .. 50,0003.9%49:44 (49:12)
255 Z Jul 4, 2014 $0.6941% (76%)100,000 .. 200,0002.65%04:27 (04:57)
256 Heroes of Arca Feb 16, 2017 Free41% (76%)0 .. 20,0000%00:00 (00:00)
257 Cashtronauts Sep 1, 2016 $0.541% (76%)0 .. 20,0000%00:00 (00:00)
258 Extravaganza Rising Jul 21, 2016 N/AN/A (N/A)20,000 .. 50,0000%00:00 (00:00)
259 Star Hammer: The Vanguard Prophecy Jun 4, 2015 $4.9941% (76%/69%)0 .. 20,0000%00:00 (00:00)
260 Livelock Aug 30, 2016 $2.4941% (76%/73%)20,000 .. 50,0003.28%01:03 (00:41)
261 Rocket Knight May 11, 2010 $14.9941% (76%/63%)0 .. 20,0000%00:00 (00:00)
262 Deadlings: Rotten Edition Nov 11, 2014 $3.9941% (76%)50,000 .. 100,0000.76%00:08 (00:02)
263 Painkiller Hell & Damnation Oct 31, 2012 $4.9941% (76%/64%)500,000 .. 1,000,0000.79%01:45 (01:44)
264 Rocketbirds 2 Evolution Jan 26, 2017 $9.9941% (76%)0 .. 20,0000%00:00 (00:00)
265 Spirits of Xanadu Mar 26, 2015 $0.9941% (76%)20,000 .. 50,0001.49%04:16 (01:25)
266 Corgi Warlock Dec 3, 2015 $0.4941% (76%)20,000 .. 50,0000%00:00 (00:00)
267 BloodRayne Sep 9, 2003 $2.9941% (76%/65%)50,000 .. 100,0000%00:00 (00:00)
268 Velocity 2X Aug 19, 2015 $4.99N/A (N/A)50,000 .. 100,0000%00:00 (00:00)
269 BossConstructor Oct 24, 2016 $7.4939% (75%)0 .. 20,0000%00:00 (00:00)
270 Hunting Unlimited 2008 Sep 1, 2007 $3.49N/A (N/A)20,000 .. 50,0000%00:00 (00:00)
271 GEARGUNS Tank offensive Sep 22, 2016 $1.5139% (75%)20,000 .. 50,0000%00:00 (00:00)
272 Albino Lullaby: Episode 1 Sep 14, 2015 $9.9939% (75%)20,000 .. 50,0000%00:00 (00:00)
273 Othello Mar 19, 2015 $2.49N/A (N/A)0 .. 20,0000%00:00 (00:00)
274 Platformines Mar 28, 2014 $2.9939% (75%/67%)100,000 .. 200,0000%00:00 (00:00)
275 FIVE: Champions of Canaan Sep 27, 2016 $0.9939% (75%)0 .. 20,0000%00:00 (00:00)
276 Pick a Hero Jun 9, 2016 $0.79N/A (N/A)0 .. 20,0000%00:00 (00:00)
277 Smell Of Death Jul 4, 2016 $9.9939% (75%)0 .. 20,0000%00:00 (00:00)
278 Zoo Empire Sep 3, 2015 $1.74N/A (N/A/59%)0 .. 20,0000%00:00 (00:00)
279 The Superfluous May 19, 2017 $1.24N/A (N/A)0 .. 20,0000%00:00 (00:00)
280 Perimeter: Emperor's Testament May 22, 2014 $0.99N/A (N/A/72%)20,000 .. 50,0000%00:00 (00:00)
281 Master Reboot Oct 29, 2013 $4.4939% (75%/59%)50,000 .. 100,0000%00:00 (00:00)
282 Onechanbara Z2: Chaos Jun 2, 2016 $19.9939% (75%)0 .. 20,0000%00:00 (00:00)
283 Monster Monpiece Mar 14, 2017 $3.9939% (75%)0 .. 20,0004.88%04:07 (02:44)
284 WARSHIFT Oct 12, 2016 $6.4939% (75%)20,000 .. 50,0000%00:00 (00:00)
285 CivCity: Rome Jul 24, 2006 $2.4939% (75%/67%)50,000 .. 100,0000%00:00 (00:00)
286 Civil War II Jul 3, 2014 $14.7939% (75%)0 .. 20,0000%00:00 (00:00)
287 AirMech Command Mar 8, 2017 $6.5939% (75%)0 .. 20,0000%00:00 (00:00)
288 Battle Time Sep 29, 2016 $0.4937% (74%)50,000 .. 100,0000%00:00 (00:00)
289 FEIST Jul 23, 2015 $3.9937% (74%)20,000 .. 50,0000%00:00 (00:00)
290 TableTop Soccer Apr 22, 2016 $0.9937% (74%)0 .. 20,0000%00:00 (00:00)
291 Viktor Jun 13, 2014 $1.1937% (74%)20,000 .. 50,0000%00:00 (00:00)
292 Divinity: Dragon Commander Aug 6, 2013 $3.9937% (74%)200,000 .. 500,0000%00:00 (00:00)
293 Bubsy Two-Fur Dec 17, 2015 $1.9937% (74%)0 .. 20,0000%00:00 (00:00)
294 Codex of Victory Mar 16, 2017 $3.7437% (74%)0 .. 20,0000%00:00 (00:00)
295 Sid Meier’s Ace Patrol Aug 27, 2013 $1.2437% (74%)500,000 .. 1,000,0000.27%03:17 (01:05)
296 Distant Worlds: Universe May 23, 2014 $19.7937% (74%/81%)50,000 .. 100,0000%00:00 (00:00)
297 Ubersoldier II Mar 25, 2014 $1.4937% (74%/62%)100,000 .. 200,0000%00:00 (00:00)
298 Banzai Escape Feb 29, 2016 $5.9937% (74%)0 .. 20,0000%00:00 (00:00)
299 LEGO Indiana Jones 2: The Adventure Continues Feb 18, 2010 $6.7937% (74%/66%)20,000 .. 50,0002.38%05:49 (01:56)
300 Vampire of the Sands Jul 17, 2015 $0.4937% (74%)20,000 .. 50,0001.39%02:14 (00:44)
301 Making History: The Great War Jan 29, 2015 $14.9937% (74%)20,000 .. 50,0003.7%04:45 (01:35)
302 Phoning Home Feb 7, 2017 $4.5937% (74%/61%)20,000 .. 50,0001.52%00:01 (00:00)
303 Death by Game Show Jan 22, 2016 $4.99N/A (N/A)20,000 .. 50,0001.25%01:23 (00:27)
304 VRZ: Torment Jun 9, 2016 $4.9936% (73%)0 .. 20,0000%00:00 (00:00)
305 Rex Rocket Aug 5, 2014 $4.9936% (73%)20,000 .. 50,0000%00:00 (00:00)
306 The Aquatic Adventure of the Last Human Jan 19, 2016 $1.9936% (73%/76%)0 .. 20,0000%00:00 (00:00)
307 Retrovirus Jan 31, 2013 $2.4936% (73%/70%)20,000 .. 50,0000%00:00 (00:00)
308 Cross of the Dutchman Sep 10, 2015 $3.1436% (73%/59%)20,000 .. 50,0001.64%00:40 (00:13)
309 Supreme Ruler Ultimate Oct 17, 2014 $7.9936% (73%)20,000 .. 50,0000%00:00 (00:00)
310 King Arthur - The Role-playing Wargame Nov 24, 2009 $2.4934% (72%)200,000 .. 500,0000%00:00 (00:00)
311 Cast of the Seven Godsends - Redux Jul 20, 2015 $1.9934% (72%)20,000 .. 50,0000%00:00 (00:00)
312 Lux Delux May 1, 2015 $3.0934% (72%)20,000 .. 50,0001.82%01:30 (00:30)
313 Rise & Shine Jan 13, 2017 $7.4934% (72%)20,000 .. 50,0000%00:00 (00:00)
314 Wyv and Keep: The Temple of the Lost Idol Aug 8, 2014 $1.49N/A (N/A)20,000 .. 50,0001.67%03:18 (01:06)
315 Auro: A Monster-Bumping Adventure Apr 13, 2016 $4.8934% (72%)0 .. 20,0000%00:00 (00:00)
316 Gold Rush! Anniversary Nov 7, 2014 $2.99N/A (N/A)100,000 .. 200,0000.67%01:55 (01:16)
317 Heaven Forest NIGHTS Mar 13, 2017 $0.9934% (72%)100,000 .. 200,0000.68%00:34 (00:33)
318 Fatal Fight Jun 10, 2016 $2.9934% (72%)0 .. 20,0000%00:00 (00:00)
319 There Came an Echo Feb 24, 2015 $5.9934% (72%/58%)20,000 .. 50,0000%00:00 (00:00)
320 Lost Planet: Extreme Condition Jun 26, 2007 $2.9934% (72%/66%)200,000 .. 500,0000%00:00 (00:00)
321 Panzer Tactics HD May 22, 2014 $2.4934% (72%/69%)20,000 .. 50,0000%00:00 (00:00)
322 Smithy Jun 3, 2016 $0.51N/A (N/A)50,000 .. 100,0000%00:00 (00:00)
323 Hot Tin Roof: The Cat That Wore A Fedora Feb 20, 2015 $7.4934% (72%/66%)100,000 .. 200,0000%00:00 (00:00)
324 rooMaze Mar 3, 2017 $0.7934% (72%)50,000 .. 100,0000%00:00 (00:00)
325 Warp Mar 21, 2012 $2.4934% (72%)20,000 .. 50,0000%00:00 (00:00)
326 Cuban Missile Crisis Mar 25, 2015 $1.2434% (72%)20,000 .. 50,0000%00:00 (00:00)
327 Airship Dragoon Aug 26, 2014 $9.99N/A (N/A)0 .. 20,0000%00:00 (00:00)
328 Battle Fleet 2 Nov 20, 2014 $5.2434% (72%)20,000 .. 50,0000%00:00 (00:00)
329 Tom Clancy's EndWar Feb 25, 2009 $3.3934% (72%/68%)50,000 .. 100,0000%00:00 (00:00)
330 Pongo May 11, 2015 $0.4934% (72%)50,000 .. 100,0000.88%00:03 (00:01)
331 Deadnaut Dec 8, 2014 $4.9934% (72%)0 .. 20,0000%00:00 (00:00)
332 Civil War: Battle of Petersburg Feb 8, 2017 $0.4934% (72%)0 .. 20,0000%00:00 (00:00)
333 Disney Planes Oct 6, 2014 $5.99N/A (N/A)0 .. 20,0000%00:00 (00:00)
334 Elliot Quest Nov 10, 2014 $9.9932% (71%)20,000 .. 50,0000%00:00 (00:00)
335 Little King's Story Aug 5, 2016 $4.9932% (71%/62%)0 .. 20,0000%00:00 (00:00)
336 Elven Legacy Apr 7, 2009 $1.2432% (71%/71%)50,000 .. 100,0000%00:00 (00:00)
337 REDCON Apr 22, 2016 $5.9932% (71%)0 .. 20,0000%00:00 (00:00)
338 Revolution Under Siege Gold Jul 2, 2015 $6.2432% (71%)0 .. 20,0000%00:00 (00:00)
339 Zombie Camp Aug 1, 2016 $1.99N/A (N/A)0 .. 20,0000%00:00 (00:00)
340 The Last Federation Apr 18, 2014 $4.9932% (71%/72%)50,000 .. 100,0000%00:00 (00:00)
341 Space Colony: Steam Edition Apr 30, 2015 $2.9932% (71%/74%)20,000 .. 50,0001.96%03:12 (01:04)
342 A.R.E.S.: Extinction Agenda Jan 20, 2011 $0.9932% (71%/68%)100,000 .. 200,0000.77%04:04 (01:21)
343 Pigmentone Jul 8, 2016 $0.49N/A (N/A)0 .. 20,0000%00:00 (00:00)
344 BitMaster Oct 12, 2016 $0.8931% (70%)200,000 .. 500,0000.17%00:02 (00:00)
345 Jagged Alliance 2 - Wildfire Mar 8, 2004 $1.3931% (70%)200,000 .. 500,0000.7%05:13 (06:32)
346 Wildlife Park 2 - Crazy Zoo Jul 17, 2014 $2.79N/A (N/A)0 .. 20,0000%00:00 (00:00)
347 Alea Jacta Est Nov 4, 2014 $9.74N/A (N/A)20,000 .. 50,0000%00:00 (00:00)
348 Brigade E5: New Jagged Union Apr 30, 2014 $0.99N/A (N/A/41%)0 .. 20,0000%00:00 (00:00)
349 YAIBA: NINJA GAIDEN Z Mar 21, 2014 $5.9929% (69%/49%)20,000 .. 50,0000%00:00 (00:00)
350 1775: Rebellion Sep 29, 2016 $24.99N/A (N/A)0 .. 20,0000%00:00 (00:00)
351 UnSummoning: the Spectral Horde Dec 21, 2015 $3.99N/A (N/A)0 .. 20,0000%00:00 (00:00)
352 Quick Slick Deadly Sep 21, 2015 $0.49N/A (N/A)20,000 .. 50,0001.1%02:03 (00:41)
353 Guns n Zombies Oct 30, 2014 $0.7929% (69%)100,000 .. 200,0001.96%01:18 (01:07)
354 Spud's Quest Jul 31, 2014 $1.59N/A (N/A)0 .. 20,00020%05:32 (01:50)
355 Collapse Apr 11, 2014 $1.9929% (69%)50,000 .. 100,0001.54%00:01 (00:00)
356 FIVE: Guardians of David Nov 24, 2015 $2.4929% (69%/66%)20,000 .. 50,0000%00:00 (00:00)
357 RISK: Factions Mar 8, 2011 $2.4929% (69%/77%)50,000 .. 100,0005.88%00:44 (00:29)
358 Strategy & Tactics: Wargame Collection Apr 22, 2016 $2.4929% (69%)20,000 .. 50,0001.85%03:17 (02:11)
359 Warrior Kings Apr 24, 2014 $1.49N/A (N/A/73%)20,000 .. 50,0000%00:00 (00:00)
360 Sol 0: Mars Colonization Jan 15, 2016 $3.9929% (69%)20,000 .. 50,0000%00:00 (00:00)
361 The Nightmare Cooperative Jul 16, 2014 $1.24N/A (N/A)50,000 .. 100,0000%00:00 (00:00)
362 Incandescent Jun 30, 2015 $0.4929% (69%)20,000 .. 50,0000%00:00 (00:00)
363 Zombie City Defense 2 Aug 19, 2016 $2.7928% (68%)0 .. 20,0000%00:00 (00:00)
364 ManaCollect Apr 17, 2015 $1.74N/A (N/A)0 .. 20,0003.45%05:20 (01:46)
365 Fair Strike Apr 23, 2015 $0.51N/A (N/A/56%)0 .. 20,0000%00:00 (00:00)
366 Survivor Squad: Gauntlets Nov 16, 2015 $0.9928% (68%)20,000 .. 50,0000%00:00 (00:00)
367 Stonerid Aug 15, 2014 $0.4928% (68%)20,000 .. 50,0000.96%00:30 (00:10)
368 Space Food Truck Mar 25, 2016 $2.4928% (68%)0 .. 20,0000%00:00 (00:00)
369 The Hive Aug 25, 2016 $4.9928% (68%)20,000 .. 50,0000%00:00 (00:00)
370 Toy Odyssey: The Lost and Found Sep 20, 2016 $7.4928% (68%/66%)50,000 .. 100,0001.73%02:29 (01:57)
371 Toren May 11, 2015 $2.4928% (68%/57%)50,000 .. 100,0000%00:00 (00:00)
372 Warhammer 40,000: Armageddon - Da Orks Aug 18, 2016 $11.79N/A (N/A)0 .. 20,0000%00:00 (00:00)
373 Theatre of War 2: Africa 1943 Apr 24, 2009 $1.2428% (68%/63%)100,000 .. 200,0000%00:00 (00:00)
374 Zafehouse: Diaries Sep 6, 2013 $0.9926% (67%)50,000 .. 100,0000%00:00 (00:00)
375 Mad Combat Marines Jul 13, 2016 $0.4926% (67%)20,000 .. 50,0000%00:00 (00:00)
376 Kill The Plumber Dec 31, 2015 $4.9926% (67%)0 .. 20,0000%00:00 (00:00)
377 Bedlam Oct 13, 2015 $1.2926% (67%/54%)100,000 .. 200,0000.46%02:01 (00:40)
378 Nomad Fleet Jul 14, 2015 $0.9926% (67%)20,000 .. 50,0000%00:00 (00:00)
379 Chainsaw Warrior Oct 7, 2013 $1.2426% (67%)100,000 .. 200,0000%00:00 (00:00)
380 7th Legion Oct 23, 2014 $1.74N/A (N/A)20,000 .. 50,0000%00:00 (00:00)
381 Sky To Fly: Faster Than Wind Mar 25, 2016 $2.9925% (66%)0 .. 20,0000%00:00 (00:00)
382 Platypus II Aug 15, 2014 $0.6925% (66%)200,000 .. 500,0000.39%02:21 (01:33)
383 Men of War: Condemned Heroes Apr 12, 2012 $1.9925% (66%/57%)100,000 .. 200,0000%00:00 (00:00)
384 Commander Cool 2 Dec 17, 2015 $0.86N/A (N/A)50,000 .. 100,0002.56%00:20 (00:11)
385 Scourge: Outbreak Apr 2, 2014 $7.9925% (66%)100,000 .. 200,0000%00:00 (00:00)
386 Sengoku Sep 15, 2011 $2.4925% (66%/70%)100,000 .. 200,0000%00:00 (00:00)
387 March of the Eagles Feb 18, 2013 $4.9925% (66%/71%)50,000 .. 100,0000%00:00 (00:00)
388 The Living Dungeon Nov 2, 2015 $4.41N/A (N/A)0 .. 20,0000%00:00 (00:00)
389 1849 May 8, 2014 $5.9925% (66%)20,000 .. 50,0000%00:00 (00:00)
390 Royal Defense Nov 10, 2014 $0.4925% (66%)50,000 .. 100,0000.47%02:54 (00:58)
391 Theatre of War 2: Kursk 1943 Mar 9, 2010 $1.2424% (65%)50,000 .. 100,0000%00:00 (00:00)
392 Malebolgia May 6, 2015 $2.5924% (65%)0 .. 20,0000%00:00 (00:00)
393 Ground Breakers Jun 15, 2016 $2.49N/A (N/A)0 .. 20,0000%00:00 (00:00)
394 Zombie Tycoon 2: Brainhov's Revenge Dec 9, 2013 $1.2424% (65%)50,000 .. 100,0000%00:00 (00:00)
395 Devil's Dare 悪魔の挑戦 Oct 21, 2014 $12.9924% (65%)20,000 .. 50,0000%00:00 (00:00)
396 Marauder Apr 4, 2014 $0.9924% (65%)50,000 .. 100,0000%00:00 (00:00)
397 8-Bit Commando Jun 2, 2014 $1.79N/A (N/A)50,000 .. 100,0000%00:00 (00:00)
398 Infinity Runner Jul 14, 2014 $2.7924% (65%/56%)0 .. 20,0000%00:00 (00:00)
399 Spirit of War Mar 12, 2015 $9.99N/A (N/A)20,000 .. 50,0001.96%04:49 (01:36)
400 Frozen Synapse Prime Nov 14, 2014 $2.4924% (65%/83%)100,000 .. 200,0000%00:00 (00:00)
401 Hunters Of The Dead Sep 4, 2014 $0.7424% (65%)20,000 .. 50,0000%00:00 (00:00)
402 Assassin’s Creed Chronicles: India Jan 12, 2016 $3.3924% (65%)20,000 .. 50,0002.38%01:59 (00:39)
403 SPACECOM Sep 17, 2014 $1.9922% (64%/68%)100,000 .. 200,0000.83%03:18 (02:11)
404 Rise: Battle Lines Nov 17, 2015 $0.49N/A (N/A)0 .. 20,0000%00:00 (00:00)
405 Desert Ashes Nov 10, 2014 $4.99N/A (N/A)20,000 .. 50,0000%00:00 (00:00)
406 Revenge of Roger Rouge Apr 22, 2016 $0.74N/A (N/A)20,000 .. 50,0001.17%03:01 (01:14)
407 The Seven Years War (1756-1763) Oct 30, 2015 $6.9922% (64%)0 .. 20,0000%00:00 (00:00)
408 Double Dragon IV Jan 30, 2017 $3.4922% (64%/50%)0 .. 20,0000%00:00 (00:00)
409 Link Apr 22, 2016 $4.99N/A (N/A)0 .. 20,0000%00:00 (00:00)
410 Jagged Alliance: Crossfire Aug 24, 2012 $2.9922% (64%/63%)100,000 .. 200,0000%00:00 (00:00)
411 Warlock 2: The Exiled Apr 10, 2014 $4.9922% (64%/73%)50,000 .. 100,0000%00:00 (00:00)
412 Zoo Rampage Jul 9, 2014 $3.9922% (64%)0 .. 20,0000%00:00 (00:00)
413 Battle Worlds: Kronos Nov 4, 2013 $4.9922% (64%/71%)20,000 .. 50,0000%00:00 (00:00)
414 Disney Pirates of the Caribbean: At Worlds End Oct 6, 2014 $5.99N/A (N/A)0 .. 20,0000%00:00 (00:00)
415 A Game of Dwarves Oct 23, 2012 $2.4922% (64%/60%)50,000 .. 100,0000%00:00 (00:00)
416 Kaiju-A-GoGo Apr 23, 2015 $2.4922% (64%)20,000 .. 50,0001.85%01:49 (00:36)
417 Urban Pirate Jun 17, 2016 $1.74N/A (N/A)0 .. 20,0000%00:00 (00:00)
418 Beasts Battle Jun 15, 2016 $1.5922% (64%)0 .. 20,0000%00:00 (00:00)
419 Will Fight for Food: Super Actual Sellout: Game of the Hour Apr 22, 2015 $1.19N/A (N/A)0 .. 20,0002.08%03:55 (01:18)
420 Crazy Forest Jul 6, 2016 $0.4921% (63%)100,000 .. 200,0000.88%02:24 (01:04)
421 Pixel Boy and the Ever Expanding Dungeon May 30, 2014 $0.9921% (63%)20,000 .. 50,0000%00:00 (00:00)
422 War, the Game Jan 12, 2015 $6.9921% (63%/65%)20,000 .. 50,0000%00:00 (00:00)
423 Bombshell Jan 29, 2016 $34.9920% (62%)0 .. 20,0000%00:00 (00:00)
424 Goblin Defenders: Steel‘n’ Wood Nov 23, 2015 $1.04N/A (N/A)20,000 .. 50,0001.32%03:26 (01:08)
425 Sorcerer King: Rivals Sep 22, 2016 $6.7420% (62%)0 .. 20,0000%00:00 (00:00)
426 Battleplan: American Civil War Jul 4, 2014 $1.4920% (62%/66%)100,000 .. 200,0000.25%00:01 (00:00)
427 Hyperspace Pinball Sep 30, 2015 $2.99N/A (N/A)0 .. 20,0000%00:00 (00:00)
428 My Super Tower 2 Jan 27, 2017 $0.49N/A (N/A)0 .. 20,0000%00:00 (00:00)
429 The Few Jun 18, 2014 $7.9920% (62%)20,000 .. 50,0000%00:00 (00:00)
430 Supreme Ruler: Cold War Jul 29, 2011 $1.9920% (62%/63%)20,000 .. 50,0000%00:00 (00:00)
431 Disney Epic Mickey 2: The Power of Two Oct 6, 2014 $9.9920% (62%)20,000 .. 50,0000%00:00 (00:00)
432 Port Royale 2 Apr 30, 2004 $0.9920% (62%/75%)50,000 .. 100,0000%00:00 (00:00)
433 Flashback Oct 1, 2013 $3.3920% (62%)20,000 .. 50,0005.88%06:51 (02:17)
434 Freight Tycoon Inc. Apr 3, 2014 $1.2420% (62%)20,000 .. 50,0000%00:00 (00:00)
435 4089: Ghost Within Jan 9, 2015 $1.7920% (62%)0 .. 20,0000%00:00 (00:00)
436 Men of War: Vietnam Sep 8, 2011 $1.9919% (61%/68%)100,000 .. 200,0000.82%00:12 (00:04)
437 Legions of Steel Jul 16, 2015 $4.99N/A (N/A/64%)0 .. 20,0000%00:00 (00:00)
438 Spice Road Apr 24, 2014 $3.99N/A (N/A)0 .. 20,0000%00:00 (00:00)
439 Call of Duty: Black Ops - Mac Edition Sep 27, 2012 $19.9919% (61%)50,000 .. 100,0000%00:00 (00:00)
440 E.T. Armies Mar 3, 2016 $2.2419% (61%/54%)0 .. 20,0000%00:00 (00:00)
441 Gnumz: Masters of Defense Dec 21, 2015 $0.49N/A (N/A)20,000 .. 50,0003.45%02:10 (03:29)
442 To End All Wars Aug 29, 2014 $11.9919% (61%/71%)0 .. 20,0000%00:00 (00:00)
443 Purgatory Jun 22, 2016 $0.4919% (61%)200,000 .. 500,0000.3%00:59 (01:17)
444 Quarantine Feb 9, 2017 $2.9918% (60%)0 .. 20,0000%00:00 (00:00)
445 Skyshine's BEDLAM Sep 16, 2015 $4.9918% (60%/67%)20,000 .. 50,0000%00:00 (00:00)
446 Grim Seventh Jan 20, 2017 FreeN/A (N/A)0 .. 20,0000%00:00 (00:00)
447 Close Combat - Panthers in the Fog May 14, 2015 $9.9918% (60%)0 .. 20,0000%00:00 (00:00)
448 Cemetery Warrior 3 Feb 3, 2017 $0.4918% (60%)50,000 .. 100,0000%00:00 (00:00)
449 Code of Princess Apr 14, 2016 $5.9918% (60%/53%)0 .. 20,0000%00:00 (00:00)
450 Stay Dead Evolution Feb 4, 2015 $1.01N/A (N/A)20,000 .. 50,0001.35%03:46 (01:15)
451 Overruled! Sep 15, 2015 $3.24N/A (N/A)20,000 .. 50,0000%00:00 (00:00)
452 Woolfe - The Red Hood Diaries Mar 17, 2015 $3.3918% (60%/55%)50,000 .. 100,0002.41%00:42 (00:28)
453 Patrician IV - Steam Special Edition Sep 17, 2010 $3.7418% (60%/66%)100,000 .. 200,0001.38%01:52 (01:11)
454 Disciples III - Renaissance Steam Special Edition Jul 16, 2010 $3.7418% (60%/56%)100,000 .. 200,0000%00:00 (00:00)
455 Prospekt Feb 18, 2016 $2.4917% (59%)20,000 .. 50,0005.88%00:20 (00:06)
456 Antisquad May 22, 2014 $5.9917% (59%)50,000 .. 100,0000%00:00 (00:00)
457 Armada 2526 Gold Edition Feb 28, 2013 $3.5917% (59%/66%)20,000 .. 50,0000%00:00 (00:00)
458 VR Journey Dec 15, 2016 $0.517% (59%)20,000 .. 50,0000%00:00 (00:00)
459 7 Grand Steps: What Ancients Begat Jun 7, 2013 $11.9917% (59%)100,000 .. 200,0000%00:00 (00:00)
460 Merchants of Kaidan Nov 10, 2014 $1.4917% (59%)100,000 .. 200,0003.38%05:19 (07:47)
461 Colonial Conquest Jul 28, 2015 $3.9917% (59%)0 .. 20,0005.88%00:44 (00:14)
462 Super Helmets on Fire DX Ultra Edition Plus Alpha Feb 15, 2016 $0.99N/A (N/A)0 .. 20,0002.63%00:30 (00:10)
463 Life in Bunker Feb 25, 2016 $7.9917% (59%)0 .. 20,0000%00:00 (00:00)
464 Ninjahtic Mind Tricks Jul 16, 2015 $0.79N/A (N/A)0 .. 20,0000%00:00 (00:00)
465 NOBUNAGA'S AMBITION: Sphere of Influence - Ascension / 信長の野望・創造 戦国立志伝 Mar 23, 2016 $23.9917% (59%)50,000 .. 100,00025%07:25 (02:28)
466 Woodle Tree 2: Worlds Sep 16, 2016 $1.5917% (59%)20,000 .. 50,0002.42%05:12 (03:31)
467 Check vs Mate Aug 16, 2012 $2.9917% (59%/69%)0 .. 20,0000%00:00 (00:00)
468 Sir! I'd Like To Report A Bug! Oct 19, 2015 $0.79N/A (N/A)0 .. 20,0000%00:00 (00:00)
469 Ceres Oct 16, 2015 $3.9916% (58%/74%)0 .. 20,0000%00:00 (00:00)
470 DreamBreak Jul 21, 2016 $2.3716% (58%/46%)0 .. 20,0000%00:00 (00:00)
471 Dawn of Andromeda May 4, 2017 $10.1916% (58%/70%)0 .. 20,0000%00:00 (00:00)
472 Adventure World Aug 2, 2016 $4.99N/A (N/A)0 .. 20,0000%00:00 (00:00)
473 Wanderlust Adventures Aug 10, 2015 $1.4916% (58%)20,000 .. 50,0000%00:00 (00:00)
474 Prophour23 Oct 22, 2014 $2.49N/A (N/A)0 .. 20,0000%00:00 (00:00)
475 Gates of Horizon Dec 18, 2014 $1.9915% (57%)0 .. 20,0000%00:00 (00:00)
476 Rise of Venice Sep 27, 2013 $4.9915% (57%/66%)50,000 .. 100,0000%00:00 (00:00)
477 Assault on Arnhem Mar 11, 2016 $9.99N/A (N/A)0 .. 20,0000%00:00 (00:00)
478 Heavy Fire: Afghanistan Aug 15, 2014 $0.9815% (57%)20,000 .. 50,0000%00:00 (00:00)
479 Unearthed: Trail of Ibn Battuta - Episode 1 - Gold Edition Jan 3, 2014 $1.2415% (57%)20,000 .. 50,0000%00:00 (00:00)
480 Defend Your Crypt Jul 21, 2016 $1.49N/A (N/A)0 .. 20,0004%02:30 (00:50)
481 Abalone Apr 23, 2014 $4.99N/A (N/A)0 .. 20,0000%00:00 (00:00)
482 reconquest Dec 16, 2016 $4.7914% (56%)0 .. 20,0000%00:00 (00:00)
483 Horizon Feb 6, 2014 $5.9914% (56%)50,000 .. 100,0000%00:00 (00:00)
484 Delve Deeper Sep 24, 2010 $4.9914% (56%)50,000 .. 100,0000%00:00 (00:00)
485 Pain Train Jan 11, 2017 $0.4914% (55%)50,000 .. 100,0005.17%02:45 (02:03)
486 BC Kings Sep 15, 2008 $0.9914% (55%)20,000 .. 50,0000%00:00 (00:00)
487 Crusaders: Thy Kingdom Come Oct 8, 2009 $2.49N/A (N/A)20,000 .. 50,0000%00:00 (00:00)
488 Wickland Feb 6, 2015 $0.4913% (54%)50,000 .. 100,0000.6%02:27 (00:49)
489 Tic-Toc-Tower Sep 28, 2015 $0.5N/A (N/A)0 .. 20,0000%00:00 (00:00)
490 Nightside Aug 6, 2015 $0.9912% (53%)20,000 .. 50,0000%00:00 (00:00)
491 Armada 2526 Jun 10, 2010 $2.69N/A (N/A/66%)0 .. 20,0000%00:00 (00:00)
492 Defence to death May 11, 2017 $0.57N/A (N/A)50,000 .. 100,0000%00:00 (00:00)
493 Urja Jan 9, 2015 $9.9912% (53%)20,000 .. 50,0001.32%00:19 (00:06)
494 Aegis Oct 6, 2016 $0.92N/A (N/A)0 .. 20,0000%00:00 (00:00)
495 RESCUE 2: Everyday Heroes Jun 3, 2015 $3.9912% (53%)20,000 .. 50,0000%00:00 (00:00)
496 Story Of the Survivor Feb 16, 2016 $2.49N/A (N/A)50,000 .. 100,0000%00:00 (00:00)
497 Smugglers 5 Apr 11, 2014 $3.9912% (53%)20,000 .. 50,0000%00:00 (00:00)
498 The Campaign Series: Fall Weiss May 30, 2014 $2.24N/A (N/A)20,000 .. 50,0001.49%05:03 (01:41)
499 Royal Bounty HD Aug 10, 2015 $2.9912% (52%)0 .. 20,0000%00:00 (00:00)
500 Scapeland Mar 31, 2016 $0.5112% (52%)0 .. 20,0000%00:00 (00:00)
501 The Stalin Subway Sep 19, 2014 $0.5112% (52%)20,000 .. 50,0000%00:00 (00:00)
502 Meridian: New World Sep 26, 2014 $1.3912% (52%/43%)50,000 .. 100,0000%00:00 (00:00)
503 Guncraft Aug 9, 2013 $2.2411% (51%/73%)100,000 .. 200,0000%00:00 (00:00)
504 Castle Werewolf 3D Feb 7, 2017 $0.511% (51%)50,000 .. 100,0000%00:00 (00:00)
505 Dusty Revenge:Co-Op Edition Feb 17, 2014 $4.9411% (51%)50,000 .. 100,0000%00:00 (00:00)
506 MDK2 HD Jul 30, 2012 $7.4911% (51%/73%)0 .. 20,0000%00:00 (00:00)
507 Biodrone Battle Jul 16, 2015 $0.4911% (51%)100,000 .. 200,0000%00:00 (00:00)
508 MinosMaze - The Minotaur's Labyrinth May 1, 2017 $0.49N/A (N/A)0 .. 20,0000%00:00 (00:00)
509 Marvel: Ultimate Alliance 2 Jul 26, 2016 $15.9910% (50%)0 .. 20,0000%00:00 (00:00)
510 Albedo: Eyes from Outer Space Apr 10, 2015 $1.4910% (50%/66%)20,000 .. 50,0000%00:00 (00:00)
511 PeriAreion Feb 19, 2015 $5.99N/A (N/A)0 .. 20,0000%00:00 (00:00)
512 Weather Lord: The Successor's Path May 7, 2015 $0.49N/A (N/A)0 .. 20,0000%00:00 (00:00)
513 No Pineapple Left Behind Feb 18, 2016 $1.74N/A (N/A/59%)0 .. 20,0000%00:00 (00:00)
514 Odd||Even Apr 6, 2016 $0.4910% (50%)20,000 .. 50,0000%00:00 (00:00)
515 Kidnapped Aug 4, 2015 $0.7710% (49%)100,000 .. 200,0000.34%01:17 (00:25)
516 Z Steel Soldiers Aug 1, 2014 $1.299% (48%)50,000 .. 100,0001.06%02:51 (01:54)
517 Rubber and Lead Sep 4, 2015 $4.99N/A (N/A)20,000 .. 50,0000.9%02:03 (00:41)
518 Aggression: Europe Under Fire Apr 9, 2014 $0.999% (48%)50,000 .. 100,0000%00:00 (00:00)
519 Synonymy Mar 5, 2015 $0.49N/A (N/A)0 .. 20,0000%00:00 (00:00)
520 Meridian: Squad 22 Aug 11, 2016 $2.999% (48%)0 .. 20,0000%00:00 (00:00)
521 Star Traders: 4X Empires Dec 16, 2014 $4.99N/A (N/A)0 .. 20,0000%00:00 (00:00)
522 Blasting Agent: Ultimate Edition Aug 17, 2016 $2.99N/A (N/A)0 .. 20,0000%00:00 (00:00)
523 ALONE IN SPACE Feb 22, 2016 $9.999% (47%)0 .. 20,0000%00:00 (00:00)
524 Hero Generations Apr 10, 2015 $0.899% (47%)0 .. 20,0000%00:00 (00:00)
525 Crossfire: Dungeons May 21, 2015 $0.519% (47%)0 .. 20,0000%00:00 (00:00)
526 Disposable Heroes Oct 1, 2015 $0.499% (47%)0 .. 20,0006.52%01:54 (01:53)
527 Island Defense Jul 23, 2015 $1.99N/A (N/A)50,000 .. 100,0000%00:00 (00:00)
528 Megamagic: Wizards of the Neon Age Apr 20, 2016 $2.998% (46%/67%)0 .. 20,0002.78%01:31 (00:50)
529 The Stalin Subway: Red Veil Oct 24, 2014 $0.58% (46%)50,000 .. 100,0000%00:00 (00:00)
530 Redemption: Saints And Sinners Nov 18, 2016 $0.498% (46%)50,000 .. 100,0001.05%08:09 (08:08)
531 Magic Quest May 6, 2016 $1.99N/A (N/A)50,000 .. 100,0000%00:00 (00:00)
532 The Bluecoats: North vs South Feb 2, 2015 $0.998% (45%)50,000 .. 100,0000%00:00 (00:00)
533 Impire Feb 14, 2013 $4.998% (45%/45%)100,000 .. 200,0000%00:00 (00:00)
534 Carrier Command: Gaea Mission Sep 28, 2012 $6.598% (45%/60%)200,000 .. 500,0000.78%00:09 (00:03)
535 Hell Nov 13, 2014 $4.79N/A (N/A)0 .. 20,0000%00:00 (00:00)
536 Chronostorm: Siberian Border Nov 20, 2015 $0.49N/A (N/A)0 .. 20,0000%00:00 (00:00)
537 World War 2: Time of Wrath Jun 6, 2014 $0.99N/A (N/A)20,000 .. 50,0000%00:00 (00:00)
538 Commander: Conquest of the Americas Jul 30, 2010 $9.998% (45%/68%)50,000 .. 100,0000%00:00 (00:00)
539 Battle Chess: Game of Kings Dec 11, 2015 $29.998% (45%)0 .. 20,0000%00:00 (00:00)
540 HitBox Jan 30, 2017 Free8% (45%)0 .. 20,0000%00:00 (00:00)
541 Skyward Collapse May 23, 2013 $1.247% (44%/64%)100,000 .. 200,0000%00:00 (00:00)
542 Nux Aug 15, 2014 $0.69N/A (N/A)100,000 .. 200,0000.74%01:40 (02:06)
543 Pride of Nations Jun 8, 2011 $4.797% (44%/70%)20,000 .. 50,0000%00:00 (00:00)
544 DUNGEONS - Steam Special Edition Feb 10, 2011 $1.997% (44%/65%)200,000 .. 500,0000%00:00 (00:00)
545 Vendetta - Curse of Raven's Cry Nov 20, 2015 $9.897% (43%)0 .. 20,00012.5%07:08 (02:31)
546 Samudai Feb 9, 2015 $2.99N/A (N/A)20,000 .. 50,0000%00:00 (00:00)
547 The Entente Gold Jun 16, 2014 $0.496% (42%)50,000 .. 100,0000%00:00 (00:00)
548 Sword of the Stars II: Enhanced Edition Nov 30, 2012 $4.996% (42%/65%)100,000 .. 200,0000%00:00 (00:00)
549 Burstfire Sep 24, 2015 N/A6% (42%)50,000 .. 100,0000%00:00 (00:00)
550 Rulers of Nations Jul 16, 2014 $9.996% (41%/63%)0 .. 20,0000%00:00 (00:00)
551 Lost in Paradise Aug 20, 2015 $0.98N/A (N/A)20,000 .. 50,0000%00:00 (00:00)
552 Hydraulic Empire Jul 31, 2015 $1.99N/A (N/A)0 .. 20,0000%00:00 (00:00)
553 Infection: Humanity's Last Gasp May 26, 2016 $9.99N/A (N/A)0 .. 20,0000%00:00 (00:00)
554 Dead But Alive! Southern England Oct 2, 2015 $5.99N/A (N/A)0 .. 20,0005.13%03:01 (02:00)
555 The Kings' Crusade Oct 8, 2010 $2.496% (40%/71%)50,000 .. 100,0000%00:00 (00:00)
556 Heavy Fire: Shattered Spear Oct 23, 2015 $0.95N/A (N/A)0 .. 20,0000%00:00 (00:00)
557 Pain Train 2 Mar 16, 2017 $0.696% (40%)0 .. 20,00013.33%03:11 (02:48)
558 Devils & Demons Oct 6, 2015 $2.49N/A (N/A)20,000 .. 50,0000%00:00 (00:00)
559 R.I.P.D.: The Game Jul 16, 2013 $1.996% (40%)20,000 .. 50,0000%00:00 (00:00)
560 Strategic War in Europe Mar 21, 2014 $2.246% (40%)20,000 .. 50,0002.44%06:44 (04:29)
561 Zombie Apocalypse: Escape The Undead City Nov 25, 2013 $0.55% (39%)0 .. 20,0000%00:00 (00:00)
562 Dark Matter Oct 17, 2013 $1.795% (39%)0 .. 20,0000%00:00 (00:00)
563 Wave of Darkness Nov 5, 2015 $8.99N/A (N/A)0 .. 20,0000%00:00 (00:00)
564 Control Craft 2 Feb 15, 2016 $0.5N/A (N/A)0 .. 20,0002.22%02:17 (00:45)
565 Dungeons - The Dark Lord Sep 27, 2011 $4.995% (39%/72%)100,000 .. 200,0000%00:00 (00:00)
566 Tiamat X May 29, 2015 $0.49N/A (N/A)50,000 .. 100,0000%00:00 (00:00)
567 Gratuitous Space Battles 2 Apr 16, 2015 $2.495% (38%)20,000 .. 50,0000%00:00 (00:00)
568 Mechs & Mercs: Black Talons Jan 9, 2015 $1.995% (38%)0 .. 20,0000%00:00 (00:00)
569 Risk Jun 10, 2013 $2.495% (38%)20,000 .. 50,0000%00:00 (00:00)
570 Stellar Impact Apr 12, 2012 $9.994% (37%/74%)50,000 .. 100,0002.41%05:03 (01:41)
571 Kick-Ass 2 Aug 15, 2014 $4.99N/A (N/A)0 .. 20,0000%00:00 (00:00)
572 Knight Adventure Oct 15, 2015 $0.99N/A (N/A)50,000 .. 100,0008.25%05:13 (04:42)
573 Shadows of War Jan 2, 2015 $0.594% (35%)20,000 .. 50,0000.89%00:01 (00:00)
574 Blue Sheep Mar 31, 2016 $1.99N/A (N/A)0 .. 20,0000%00:00 (00:00)
575 Urban Empire Jan 20, 2017 $7.494% (35%/62%)50,000 .. 100,0000%00:00 (00:00)
576 Arma Tactics Oct 1, 2013 $1.794% (34%/47%)200,000 .. 500,0000.58%01:18 (00:51)
577 CTU: Counter Terrorism Unit Apr 22, 2016 $2.994% (34%)0 .. 20,0000%00:00 (00:00)
578 Into the Void Dec 4, 2015 $4.99N/A (N/A)20,000 .. 50,0000%00:00 (00:00)
579 Fallen: A2P Protocol Aug 14, 2015 $9.994% (34%)20,000 .. 50,00012.5%00:04 (00:01)
580 Jagged Alliance Flashback Oct 21, 2014 $3.993% (33%)20,000 .. 50,0000%00:00 (00:00)
581 Sim Junta Aug 18, 2015 $0.493% (33%)0 .. 20,0000%00:00 (00:00)
582 Ranger of the jungle Jul 16, 2016 $1.19N/A (N/A)0 .. 20,0000%00:00 (00:00)
583 Disciples III - Resurrection Oct 11, 2011 $3.743% (32%/63%)100,000 .. 200,0000%00:00 (00:00)
584 Zombie Zoeds May 20, 2015 $2.993% (31%)200,000 .. 500,0000.67%00:03 (00:03)
585 A Game of Thrones - Genesis Sep 29, 2011 $9.993% (31%)100,000 .. 200,0000%00:00 (00:00)
586 Robotex Nov 19, 2014 $0.493% (31%)100,000 .. 200,0000.4%02:03 (00:41)
587 Ku: Shroud of the Morrigan Mar 17, 2014 $4.99N/A (N/A)20,000 .. 50,0000%00:00 (00:00)
588 Psichodelya Aug 8, 2014 $0.99N/A (N/A)100,000 .. 200,0000%00:00 (00:00)
589 Ground Pounders Jul 15, 2014 $2.49N/A (N/A)0 .. 20,0000%00:00 (00:00)
590 Evopollution Apr 23, 2014 $4.993% (31%)0 .. 20,0000%00:00 (00:00)
591 Power of Defense Aug 4, 2010 $9.99N/A (N/A)0 .. 20,0000%00:00 (00:00)
592 Tank Operations: European Campaign Nov 22, 2013 $4.493% (30%)20,000 .. 50,0000%00:00 (00:00)
593 Defenders of Time Nov 4, 2014 N/AN/A (N/A/55%)0 .. 20,0000%00:00 (00:00)
594 Solar Shifter EX Sep 11, 2015 $1.99N/A (N/A)20,000 .. 50,0002.56%02:20 (00:46)
595 Gridberd Sep 7, 2015 $1.74N/A (N/A)200,000 .. 500,0000%00:00 (00:00)
596 Hard Truck Apocalypse: Arcade / Ex Machina: Arcade Mar 14, 2014 $0.492% (26%)20,000 .. 50,0000%00:00 (00:00)
597 Zombies on a Plane Mar 25, 2016 $1.242% (25%)0 .. 20,0000%00:00 (00:00)
598 One Star Apr 17, 2017 $0.5N/A (N/A)50,000 .. 100,0001.02%01:57 (01:32)
599 APOX Jan 20, 2011 $14.992% (23%/48%)20,000 .. 50,0000%00:00 (00:00)
600 Elite vs. Freedom May 31, 2016 $0.492% (22%)0 .. 20,0000%00:00 (00:00)
601 The Asskickers-Steam Edition Feb 6, 2015 $1.99N/A (N/A)0 .. 20,0000%00:00 (00:00)
602 Lords of the Black Sun Sep 12, 2014 $4.491% (21%)0 .. 20,0007.14%02:01 (00:40)
603 Human Extinction Simulator Jan 21, 2015 $4.99N/A (N/A)0 .. 20,0000%00:00 (00:00)
604 Star Project Aug 4, 2016 $0.491% (19%)100,000 .. 200,0003.6%04:31 (04:40)
605 Gemini Wars Nov 2, 2012 $2.691% (19%/53%)20,000 .. 50,0000%00:00 (00:00)
606 Tryst Sep 14, 2012 $14.99N/A (N/A/50%)0 .. 20,0000%00:00 (00:00)
607 Prison Tycoon 3: Lockdown Aug 1, 2007 $3.491% (16%)20,000 .. 50,0000%00:00 (00:00)
608 Once Bitten, Twice Dead! Jul 7, 2015 $4.99N/A (N/A)20,000 .. 50,0000%00:00 (00:00)
609 Citadels Jul 25, 2013 $3.741% (12%/20%)20,000 .. 50,0000%00:00 (00:00)
610 Bloodbath Jun 16, 2014 $4.49N/A (N/A)0 .. 20,0000%00:00 (00:00)
611 Magnetic By Nature Nov 10, 2014 $9.99N/A (N/A)20,000 .. 50,0000%00:00 (00:00)

Owners of this game also own:

Access restricted.

This feature is only available to users with special access rights. Sorry.

If you want to proceed, you need to register or log in first and then back Steam Spy on Patreon. Look for Indie or Pro pledge.

Don't forget to use the same email as on Steam Spy!

Playtime distribution:

Access restricted.

This feature is only available to users with special access rights. Sorry.

If you want to proceed, you need to register or log in first and then back Steam Spy on Patreon. Look for Indie or Pro pledge.

Don't forget to use the same email as on Steam Spy!

Playtime (2 weeks):

Access restricted.

This feature is only available to users with special access rights. Sorry.

If you want to proceed, you need to register or log in first and then back Steam Spy on Patreon. Look for Indie or Pro pledge.

Don't forget to use the same email as on Steam Spy!

User reviews:

Login required.

Please register or log in to see this information.